Time,TemperatureF,DewpointF,PressureIn,WindDirection,WindDirectionDegrees,WindSpeedMPH,WindSpeedGustMPH,Humidity,HourlyPrecipIn,Conditions,Clouds,dailyrainin,SolarRadiationWatts/m^2,SoftwareType,DateUTC
2013-07-15 00:01:00,58.0,41.0,-100.00,ESE,116,0.0,5.0,54,0.00,,,0.00,0.000000,,2013-07-15 07:01:00,
2013-07-15 05:42:00,55.0,41.0,-100.00,ESE,108,1.0,4.0,58,-99.99,,,0.00,0.000000,,2013-07-15 12:42:00,
2013-07-15 08:02:00,62.0,46.0,-100.00,South,169,0.0,4.0,55,-99.99,,,0.00,85.000000,,2013-07-15 15:02:00,
2013-07-15 08:29:00,62.0,46.0,-100.00,South,169,0.0,4.0,55,-99.99,,,0.00,85.000000,,2013-07-15 15:29:00,
2013-07-15 08:40:00,62.0,46.0,-100.00,South,169,0.0,4.0,55,-99.99,,,0.00,85.000000,,2013-07-15 15:40:00,
2013-07-15 08:47:00,62.0,46.0,-100.00,South,169,0.0,4.0,55,-99.99,,,0.00,85.000000,,2013-07-15 15:47:00,
2013-07-15 08:53:00,62.0,46.0,-100.00,South,169,0.0,4.0,55,-99.99,,,0.00,85.000000,,2013-07-15 15:53:00,
2013-07-15 09:02:00,74.0,47.0,-100.00,SW,236,0.0,2.0,38,0.00,,,0.00,426.000000,,2013-07-15 16:02:00,
2013-07-15 09:33:00,74.0,47.0,-100.00,SW,236,0.0,2.0,38,0.00,,,0.00,426.000000,,2013-07-15 16:33:00,
2013-07-15 09:52:00,74.0,47.0,-100.00,SW,236,0.0,2.0,38,0.00,,,0.00,426.000000,,2013-07-15 16:52:00,
2013-07-15 10:36:00,77.0,42.0,-100.00,NW,319,2.0,7.0,29,0.00,,,0.00,542.000000,,2013-07-15 17:36:00,
2013-07-15 10:50:00,77.0,42.0,-100.00,NW,319,2.0,7.0,29,0.00,,,0.00,542.000000,,2013-07-15 17:50:00,
2013-07-15 11:02:00,81.0,42.0,-100.00,NW,315,3.0,10.0,25,0.00,,,0.00,687.000000,,2013-07-15 18:02:00,
2013-07-15 11:45:00,81.0,42.0,-100.00,NW,315,3.0,10.0,25,0.00,,,0.00,687.000000,,2013-07-15 18:45:00,
2013-07-15 11:57:00,81.0,42.0,-100.00,NW,315,3.0,10.0,25,0.00,,,0.00,687.000000,,2013-07-15 18:57:00,
2013-07-15 12:02:00,82.0,41.0,-100.00,NW,308,5.0,12.0,23,0.00,,,0.00,917.000000,,2013-07-15 19:02:00,
2013-07-15 12:38:00,82.0,41.0,-100.00,NW,308,5.0,12.0,23,0.00,,,0.00,917.000000,,2013-07-15 19:38:00,
2013-07-15 12:56:00,82.0,41.0,-100.00,NW,308,5.0,12.0,23,0.00,,,0.00,917.000000,,2013-07-15 19:56:00,
2013-07-15 13:29:00,83.0,45.0,-100.00,NNW,327,4.0,11.0,26,0.00,,,0.00,917.000000,,2013-07-15 20:29:00,
2013-07-15 13:37:00,83.0,45.0,-100.00,NNW,327,4.0,11.0,26,0.00,,,0.00,917.000000,,2013-07-15 20:37:00,
2013-07-15 13:43:00,83.0,45.0,-100.00,NNW,327,4.0,11.0,26,0.00,,,0.00,917.000000,,2013-07-15 20:43:00,
2013-07-15 13:56:00,83.0,45.0,-100.00,NNW,327,4.0,11.0,26,0.00,,,0.00,917.000000,,2013-07-15 20:56:00,
2013-07-15 14:02:00,85.0,46.0,-100.00,WNW,294,3.0,13.0,26,0.00,,,0.00,1017.000000,,2013-07-15 21:02:00,
2013-07-15 14:23:00,85.0,46.0,-100.00,WNW,294,3.0,13.0,26,0.00,,,0.00,1017.000000,,2013-07-15 21:23:00,
2013-07-15 14:40:00,85.0,46.0,-100.00,WNW,294,3.0,13.0,26,0.00,,,0.00,1017.000000,,2013-07-15 21:40:00,
2013-07-15 14:48:00,85.0,46.0,-100.00,WNW,294,3.0,13.0,26,0.00,,,0.00,1017.000000,,2013-07-15 21:48:00,
2013-07-15 14:58:00,85.0,46.0,-100.00,WNW,294,3.0,13.0,26,0.00,,,0.00,1017.000000,,2013-07-15 21:58:00,
2013-07-15 15:02:00,84.0,43.0,-100.00,NNW,334,4.0,13.0,24,0.00,,,0.00,950.000000,,2013-07-15 22:02:00,
2013-07-15 15:43:00,84.0,43.0,-100.00,NNW,334,4.0,13.0,24,0.00,,,0.00,950.000000,,2013-07-15 22:43:00,
2013-07-15 15:54:00,84.0,43.0,-100.00,NNW,334,4.0,13.0,24,0.00,,,0.00,950.000000,,2013-07-15 22:54:00,
2013-07-15 16:02:00,83.0,44.0,-100.00,NW,321,4.0,14.0,25,0.00,,,0.00,854.000000,,2013-07-15 23:02:00,
2013-07-15 16:40:00,83.0,44.0,-100.00,NW,321,4.0,14.0,25,0.00,,,0.00,854.000000,,2013-07-15 23:40:00,
2013-07-15 16:54:00,83.0,44.0,-100.00,NW,321,4.0,14.0,25,0.00,,,0.00,854.000000,,2013-07-15 23:54:00,
2013-07-15 17:02:00,81.0,43.0,-100.00,NW,313,4.0,11.0,26,0.00,,,0.00,714.000000,,2013-07-16 00:02:00,
2013-07-15 17:34:00,81.0,43.0,-100.00,NW,313,4.0,11.0,26,0.00,,,0.00,714.000000,,2013-07-16 00:34:00,
2013-07-15 17:49:00,81.0,43.0,-100.00,NW,313,4.0,11.0,26,0.00,,,0.00,714.000000,,2013-07-16 00:49:00,
2013-07-15 18:02:00,80.0,44.0,-100.00,WNW,283,3.0,10.0,28,0.00,,,0.00,505.000000,,2013-07-16 01:02:00,
2013-07-15 18:49:00,80.0,44.0,-100.00,WNW,283,3.0,10.0,28,0.00,,,0.00,505.000000,,2013-07-16 01:49:00,
2013-07-15 18:59:00,80.0,44.0,-100.00,WNW,283,3.0,10.0,28,0.00,,,0.00,505.000000,,2013-07-16 01:59:00,
2013-07-15 19:02:00,74.0,44.0,-100.00,NW,306,2.0,9.0,34,0.00,,,0.00,49.000000,,2013-07-16 02:02:00,
2013-07-15 19:35:00,74.0,44.0,-100.00,NW,306,2.0,9.0,34,0.00,,,0.00,49.000000,,2013-07-16 02:35:00,
2013-07-15 19:50:00,74.0,44.0,-100.00,NW,306,2.0,9.0,34,0.00,,,0.00,49.000000,,2013-07-16 02:50:00,
2013-07-15 20:29:00,70.0,44.0,-100.00,NNW,348,0.0,6.0,39,0.00,,,0.00,65.000000,,2013-07-16 03:29:00,
2013-07-15 20:40:00,70.0,44.0,-100.00,NNW,348,0.0,6.0,39,0.00,,,0.00,65.000000,,2013-07-16 03:40:00,
2013-07-15 20:48:00,70.0,44.0,-100.00,NNW,348,0.0,6.0,39,0.00,,,0.00,65.000000,,2013-07-16 03:48:00,
2013-07-15 21:01:00,70.0,44.0,-100.00,NNW,348,0.0,6.0,39,0.00,,,0.00,65.000000,,2013-07-16 04:01:00,